This is the latest recevied weather packets stored in our database for station/object HK3BJ-11. If no packets are shown the sender has not sent any weather packets the latest 10 day(s).
| Time | Temp. | Humidity | Pressure | Rain* | Wind** | Luminosity | Snow |
|---|---|---|---|---|---|---|---|
| 1788007037 | 12.22° C | 81% | 1018 hPa | 0 mm | - | - | - |
| 1788006092 | 13.89° C | 86% | 1019 hPa | 0 mm | - | - | - |
| 1788005148 | 12.78° C | 86% | 1019 hPa | 0 mm | - | - | - |
| 1788004208 | 11.67° C | 86% | 1019 hPa | 0 mm | - | - | - |
| 1788003266 | 10.56° C | 86% | 1019 hPa | 0 mm | - | - | - |
| 1788002321 | 10.56° C | 91% | 1019 hPa | 0 mm | - | - | - |
| 1788001378 | 10.56° C | 90% | 1019 hPa | 0 mm | - | - | - |
| 1788000431 | 10.56° C | 88% | 1019 hPa | 0 mm | - | - | - |
| 1787999470 | 11.11° C | 88% | 1019 hPa | 0 mm | - | - | - |
| 1787998500 | 11.11° C | 89% | 1019 hPa | 0 mm | - | - | - |
| 1787997557 | 11.11° C | 88% | 1019 hPa | 0 mm | - | - | - |
| 1787996614 | 11.11° C | 89% | 1019 hPa | 0 mm | - | - | - |
| 1787995673 | 11.11° C | 90% | 1018 hPa | 0 mm | - | - | - |
| 1787994732 | 11.11° C | 89% | 1018 hPa | 0 mm | - | - | - |
| 1787993791 | 11.11° C | 88% | 1018 hPa | 0 mm | - | - | - |
| 1787992850 | 11.11° C | 89% | 1018 hPa | 0 mm | - | - | - |
| 1787991910 | 11.67° C | 91% | 1018 hPa | 0 mm | - | - | - |
| 1787990968 | 11.67° C | 90% | 1018 hPa | 0 mm | - | - | - |
| 1787990027 | 11.67° C | 89% | 1018 hPa | 0 mm | - | - | - |
| 1787989081 | 11.67° C | 89% | 1018 hPa | 0 mm | - | - | - |
| 1787988136 | 11.67° C | 90% | 1019 hPa | 0 mm | - | - | - |
| 1787987198 | 11.67° C | 89% | 1019 hPa | 0 mm | - | - | - |
| 1787986252 | 11.67° C | 88% | 1019 hPa | 0 mm | - | - | - |
| 1787985302 | 11.67° C | 88% | 1019 hPa | 0 mm | - | - | - |
| 1787984357 | 11.67° C | 90% | 1019 hPa | 0 mm | - | - | - |
* Rain latest hour (hover to see other rain measurements)
** Current wind speed in m/s (hover to see current wind gust speed)